Location: Nairn
(57.5833°N, 3.8667°W)
Time: 22:00:14
(UTC+00:00)

S-56A Canister/Altair - Pass Details

Date: 08 October 2022
Orbit: 638 x 2494 km, 38.9° (Epoch: 05 December)

Event Time Altitude Azimuth Distance (km) Brightness Sun altitude
Exits shadow 02:57:56 20° 168° (SSE) 2,820 10.1 -28.1°
Drops below altitude 10° 03:01:16 10° 144° (SE) 3,260 10.7 -27.8°
Sets 03:04:18 0° 130° (SE) 3,961 11.3 -27.5°
